OpenBCM V1.08-5-g2f4a (Linux)

Packet Radio Mailbox

IZ3LSV

[San Dona' di P. JN]

 Login: GUEST





  
LU9DCE > KEPS     27.02.18 18:13l 264 Lines 13124 Bytes #999 (0) @ WW
BID : 32956_LU9DCE
Read: GUEST
Subj: SAT TLE OF 27
Path: IZ3LSV<IR2UBX<EA2RCF<LU9DCE
Sent: 180227/1601Z @:LU9DCE.TOR.BA.ARG.SOAM #:32956 [TORTUGUITAS] FBB7.07
From: LU9DCE@LU9DCE.TOR.BA.ARG.SOAM
To  : KEPS@WW


            __    _  _  ___  ____   ___  ____    ____  ____  ____
           (  )  / )( \/ _ \(    \ / __)(  __)  (  _ \(  _ \/ ___)
           / (_/\) \/ (\__  )) D (( (__  ) _)    ) _ ( ) _ (\___ \
           \____/\____/(___/(____/ \___)(____)  (____/(____/(____/
               ESTACION DE PACKET RADIO - BUENOS AIRES (GF05OM)
                   BOLETINES INFORMATIVOS PROGRAMADOS (BIP)
                    LU9DCE@GMX.COM - RF 147070 @ 1200 BAUD
                           telnet lu9dce.dynu.com
             BBS port 6300 / NODE port 3694 / DXCLUSTER port 9000

+------------------------------------------------------------------------------+
OSCAR 7
1 07530U 74089B   18057.88601369 -.00000034  00000-0  65406-4 0  9998
2 07530 101.6726  26.9247 0011978 187.3648 228.1077 12.53631391980775
OSCAR 11 (UoSAT 2)
1 14781U 84021B   18057.68287608 +.00000081 +00000-0 +16137-4 0  9993
2 14781 097.6644 098.5249 0010008 086.7626 273.4733 14.82982888807068
OSCAR 19 (LUSAT)
1 20442U 90005G   18057.88301829 -.00000010 +00000-0 +12358-4 0  9991
2 20442 098.6010 357.1115 0012788 113.5248 246.7280 14.32887574468030
KITSAT B
1 22825U 93061C   18056.97100526 +.00000015 +00000-0 +23753-4 0  9998
2 22825 098.8496 031.1490 0007668 316.8080 043.2499 14.30022754273401
POSAT 1
1 22826U 93061D   18057.92293120 +.00000004 +00000-0 +19371-4 0  9997
2 22826 098.8439 032.1680 0008020 302.2989 057.7416 14.30353724273741
RADIO ROSTO
1 23439U 94085A   18057.65308937 -.00000040 +00000-0 +72266-4 0  9991
2 23439 064.8161 167.5997 0160992 201.7932 263.3300 11.27566562954101
JAS 2
1 24278U 96046B   18057.83068336 -.00000001  00000-0  33334-4 0  9998
2 24278  98.5279 271.7248 0350969  37.3723 325.1282 13.53081935 63317
TECHSAT 1B
1 25397U 98043D   18057.89948357 -.00000020 +00000-0 +10092-4 0  9993
2 25397 098.6396 000.2262 0001444 029.5169 330.6091 14.23640397019816
ISS (ZARYA)
1 25544U 98067A   18057.95014984 +.00002480 +00000-0 +44647-4 0  9994
2 25544 051.6409 208.2703 0002974 132.4156 013.6936 15.54158449101379
PCSAT
1 26931U 01043C   18057.74716856 -.00000041  00000-0  16080-4 0  9999
2 26931  67.0517 154.3788 0006041 282.4012  77.6413 14.30495065856751
SAUDISAT 1C
1 27607U 02058C   18057.52754792 +.00000014 +00000-0 +22693-4 0  9990
2 27607 064.5547 068.2729 0052102 354.6868 005.3675 14.75422744816639
CUTE-1
1 27844U 03031E   18057.98884979  .00000063  00000-0  48440-4 0  9998
2 27844  98.6892  68.2589 0009255 336.5491  23.5264 14.22096571760539
CUBESAT XI 4
1 27848U 03031J   18057.98796625  .00000048  00000-0  41712-4 0  9990
2 27848  98.6980  68.6180 0009336 347.1875  12.9063 14.21702814760404
MOZHAYETS 4
1 27939U 03042A   18058.54466530  .00000057  00000-0  18692-4 0  9996
2 27939  97.9715 200.6276 0014031 132.8188 298.9484 14.66660348770746
CUBESAT XI 5
1 28895U 05043F   18057.92909473 +.00000128 +00000-0 +33454-4 0  9992
2 28895 097.8917 213.9537 0017957 060.8083 299.4914 14.63512664657519
CUTE-1.7+APD II
1 32785U 08021C   18057.83908008 +.00000226 +00000-0 +30209-4 0  9991
2 32785 097.5526 075.2577 0014236 049.1962 311.0488 14.88067456532690
DELFI C3
1 32789U 08021G   18058.40988888  .00000913  00000-0  67161-4 0  9993
2 32789  97.5270 115.9410 0011144 317.6052  42.4314 15.05778749535269
SEEDS
1 32791U 08021J   18057.63691227 +.00000236 +00000-0 +29610-4 0  9993
2 32791 097.5443 080.1614 0014142 032.7392 327.4701 14.90475286532969
YUBELEINY
1 32953U 08025A   18058.50007310  .00000040  00000-0  21358-3 0  9991
2 32953  82.4990  80.8964 0020385  89.6080 270.7336 12.43081945443141
PRISM (HITOMI)
1 33493U 09002B   18058.42003791  .00000594  00000-0  58453-4 0  9998
2 33493  98.1413 316.2392 0014719 325.0270  34.9920 14.96093741493936
KKS-1 (KISEKI)
1 33499U 09002H   18058.17054728  .00000109  00000-0  24182-4 0  9996
2 33499  98.3499 236.3886 0008001 284.7856  75.2465 14.75297766488954
SWISSCUBE
1 35932U 09051B   18057.94329650 +.00000130 +00000-0 +40331-4 0  9995
2 35932 098.5273 206.5604 0007768 180.2383 179.8812 14.56124550447356
BEESAT
1 35933U 09051C   18057.90980205  .00000107  00000-0  35116-4 0  9990
2 35933  98.5313 208.0021 0005695 190.8199 169.2877 14.56232371447491
ITUPSAT 1
1 35935U 09051E   18057.97115931  .00000073  00000-0  27880-4 0  9996
2 35935  98.5426 208.3193 0008079 188.5888 171.5172 14.55413486447298
XIWANG-1 (HOPE-1)
1 36122U 09072B   18058.18527612 -.00000035  00000-0  19760-4 0  9992
2 36122 100.0831  77.9352 0007579  11.9849 348.1444 13.16343520394172
TISAT 1
1 36799U 10035E   18057.90348669 +.00000479 +00000-0 +54819-4 0  9990
2 36799 098.0884 191.3215 0011916 204.8696 155.1948 14.90704087413526
JUGNU
1 37839U 11058B   18058.16419303  .00000324  00000-0  30753-4 0  9995
2 37839  19.9625 344.4073 0019070 114.1485  26.1807 14.12610403329796
SRMSAT
1 37841U 11058D   18058.23397257  .00000308  00000-0  24012-4 0  9992
2 37841  19.9735  30.9164 0011810   3.7414 117.3291 14.10599223329332
M-CUBED/EXP-1 PRIME
1 37855U 11061F   18057.92848728 +.00001723 +00000-0 +95827-4 0  9994
2 37855 101.7259 064.0329 0177714 048.5068 313.1243 15.04092660344604
HORYU 2
1 38340U 12025D   18057.94645454 +.00000184 +00000-0 +35131-4 0  9990
2 38340 098.3737 075.8413 0011256 195.8005 164.2854 14.75503900300443
STRAND 1
1 39090U 13009E   18057.80418822 +.00000020 +00000-0 +22237-4 0  9990
2 39090 098.5320 265.5526 0008095 264.8629 095.1633 14.35012254261979
SOMP
1 39134U 13015E   18058.18710974  .00001237  00000-0  68435-4 0  9992
2 39134  64.8629 122.6554 0023117 225.6358 134.2875 15.18841854268198
BEESAT 3
1 39135U 13015F   18057.63498630  .00000838  00000-0  52707-4 0  9995
2 39135  64.8693 136.3819 0029106 247.3285 112.4763 15.16418811267880
BEESAT 2
1 39136U 13015G   18058.22599793  .00001011  00000-0  62291-4 0  9997
2 39136  64.8700 136.9703 0029596 247.4795 112.3197 15.15900578267928
CUBEBUG 1
1 39153U 13018D   18057.79645887  .00000183  00000-0  30991-4 0  9997
2 39153  97.9782 153.7084 0015783 306.4312  53.5444 14.80344994261253
ZACUBE
1 39417U 13066B   18057.90947751 +.00000208 +00000-0 +32596-4 0  9992
2 39417 097.6001 092.3663 0059901 155.1139 205.2984 14.80880624230474
TRITON 1
1 39427U 13066M   18058.05675169  .00000141  00000-0  30831-4 0  9997
2 39427  97.6384  61.3070 0112754 252.0097 106.8794 14.67615366228424
GOMX 1
1 39430U 13066Q   18058.50910693  .00000218  00000-0  48903-4 0  9999
2 39430  97.6869  43.3531 0150705 317.2286  41.7266 14.59030261227156
HUMSAT D
1 39433U 13066T   18057.90443343 +.00000562 +00000-0 +60732-4 0  9994
2 39433 097.6191 118.0658 0032540 090.2204 270.2744 14.91757692230807
50 SAT
1 39436U 13066W   18058.02061691  .00093820  00000-0  11107-2 0  9992
2 39436  97.7112 185.3908 0006312 242.6576 117.4038 15.60926162236049
CUBEBUG 2
1 39440U 13066AA  18057.95212833 +.00000178 +00000-0 +31913-4 0  9997
2 39440 097.6088 079.6995 0080326 192.4995 167.4225 14.75616846228460
FUNCUBE 1
1 39444U 13066AE  18057.69271217  .00000251  00000-0  37408-4 0  9990
2 39444  97.6013  93.5453 0059142 151.6921 208.7528 14.81646147229295
UWE-3
1 39446U 13066AG  18057.96062357 +.00000193 +00000-0 +32449-4 0  9990
2 39446 097.6031 085.6990 0070523 174.0445 186.1621 14.78149861228245
SPROUT
1 39770U 14029E   18058.55677611  .00000675  00000-0  82096-4 0  9999
2 39770  97.8724 160.5687 0008765 199.0542 161.0348 14.86683540204075
UNISAT 6
1 40012U 14033C   18058.56678602  .00000150  00000-0  29934-4 0  9997
2 40012  97.8248 298.7964 0058123 191.0702 168.9232 14.73768656198553
DUCHIFAT 1
1 40021U 14033M   18057.74172480  .00000317  00000-0  38551-4 0  9999
2 40021  97.9176 336.2628 0012869 176.3417 183.7897 14.90207056200507
QB50P1
1 40025U 14033R   18057.71363722 +.00000274 +00000-0 +35419-4 0  9993
2 40025 097.9085 333.3253 0012296 182.2074 177.9090 14.88642602199842
CHUBUSAT 1
1 40300U 14070C   18058.19264782  .00000671  00000-0  32892-4 0  9992
2 40300  97.3722 138.2074 0018742 290.9934 152.9422 15.21400316183552
NUDT-PHONESAT
1 40900U 15049B   18057.91884442 +.00002017 +00000-0 +94349-4 0  9996
2 40900 097.4432 067.4703 0015085 059.2667 301.0052 15.20829007135155
ZDPS 2A
1 40901U 15049C   18058.18492214  .00000878  00000-0  47883-4 0  9993
2 40901  97.4599  66.2604 0015300  63.4717 296.8083 15.16874189134981
ZDPS 2B
1 40902U 15049D   18058.20996688  .00000800  00000-0  44188-4 0  9991
2 40902  97.4489  64.4916 0015332  60.7738 299.5027 15.16679980134973
XW-2A
1 40903U 15049E   18058.45011482  .00001940  00000-0  50508-4 0  9998
2 40903  97.3977  92.1628 0016011  68.9816 291.3141 15.40046387136914
KAITUO 1A
1 40904U 15049F   18058.51258845  .00000349  00000-0  22225-4 0  9999
2 40904  97.4590  64.1580 0016451  60.6570  94.1604 15.14894007134896
OBJECT G
1 40905U 15049G   18057.96837538 +.00000411 +00000-0 +26262-4 0  9995
2 40905 097.4575 061.8841 0017228 055.7551 304.5310 15.13867531134748
XW-2C
1 40906U 15049H   18058.55415410  .00000646  00000-0  38007-4 0  9993
2 40906  97.4596  64.0701 0016452  53.8601 306.4151 15.15031558134899
XW-2D
1 40907U 15049J   18058.51711517  .00000710  00000-0  41280-4 0  9996
2 40907  97.4569  63.7450 0015772  52.2572 308.0087 15.15170749134893
LILACSAT 2
1 40908U 15049K   18057.93092482 +.00000354 +00000-0 +23401-4 0  9994
2 40908 097.4676 062.6678 0017405 054.2802 306.0045 15.13415530134694
XW-2F
1 40910U 15049M   18058.54923340  .00001046  00000-0  57310-4 0  9996
2 40910  97.4576  64.8944 0016450  48.5779 311.6864 15.16284927134849
XW-2B
1 40911U 15049N   18058.20049875  .00000691  00000-0  40330-4 0  9991
2 40911  97.4606  63.9291 0015707  53.7614 306.5067 15.15118503134741
